Location: *
(43.4667°N, 11.6833°E)
Time: 10:02:41
(UTC+00:00)

Cosmos 2333 Rocket - Pass Details

Date: 19 July 2019
Orbit: 842 x 860 km, 70.8° (Epoch: 25 August)

Event Time Altitude Azimuth Distance (km) Brightness Sun altitude
Exits shadow 21:26:47 29° 198° (SSW) 1,522 3.1 -20.7°
Maximum altitude 21:29:51 82° 113° (ESE) 863 2.1 -21.0°
Drops below altitude 10° 21:35:33 10° 27° (NNE) 2,479 5.1 -21.5°
Sets 21:38:00 0° 26° (NNE) 3,416 5.9 -21.7°
